Time,TemperatureF,DewpointF,PressureIn,WindDirection,WindDirectionDegrees,WindSpeedMPH,WindSpeedGustMPH,Humidity,HourlyPrecipIn,Conditions,Clouds,dailyrainin,SolarRadiationWatts/m^2,SoftwareType,DateUTC
2013-05-22 00:01:00,54.6,54.0,29.84,NNE,30,0.0,0.0,98,0.00,RA,,0.00,0.0,WeatherDisplay:10.37,2013-05-22 05:01:00,
2013-05-22 00:06:00,54.6,54.0,29.84,NNE,30,0.0,0.0,98,0.00,RA,,0.00,0.0,WeatherDisplay:10.37,2013-05-22 05:06:00,
2013-05-22 00:11:00,54.7,54.1,29.84,NNE,30,0.0,0.0,98,0.00,CLR,,0.00,0.0,WeatherDisplay:10.37,2013-05-22 05:11:00,
2013-05-22 00:16:00,54.6,54.0,29.84,NNE,30,0.0,0.0,98,0.00,CLR,,0.00,0.0,WeatherDisplay:10.37,2013-05-22 05:16:00,
2013-05-22 00:21:00,54.7,54.1,29.84,NNE,30,0.0,0.0,98,0.00,CLR,,0.00,0.0,WeatherDisplay:10.37,2013-05-22 05:21:00,
2013-05-22 00:26:00,54.5,53.9,29.84,NNE,30,0.0,0.0,98,0.00,CLR,,0.00,0.0,WeatherDisplay:10.37,2013-05-22 05:26:00,
2013-05-22 00:31:00,54.6,54.0,29.84,NNE,30,0.0,0.0,98,0.00,CLR,,0.00,0.0,WeatherDisplay:10.37,2013-05-22 05:31:00,
2013-05-22 00:36:00,54.7,54.1,29.85,NNE,30,0.0,0.0,98,0.00,CLR,,0.00,0.0,WeatherDisplay:10.37,2013-05-22 05:36:00,
2013-05-22 00:41:00,54.6,54.0,29.85,NNE,30,0.0,0.0,98,0.00,CLR,,0.00,0.0,WeatherDisplay:10.37,2013-05-22 05:41:00,
2013-05-22 00:46:00,54.5,53.9,29.85,NNE,30,0.0,0.0,98,0.00,CLR,,0.00,0.0,WeatherDisplay:10.37,2013-05-22 05:46:00,
2013-05-22 00:51:00,54.0,53.4,29.85,NNE,30,0.0,0.0,98,0.00,CLR,,0.00,0.0,WeatherDisplay:10.37,2013-05-22 05:51:00,
2013-05-22 00:56:00,53.4,52.8,29.85,NNE,30,0.0,0.0,98,0.00,CLR,,0.00,0.0,WeatherDisplay:10.37,2013-05-22 05:56:00,
2013-05-22 01:01:00,53.3,52.8,29.84,NNE,30,0.0,0.0,98,0.00,CLR,,0.00,0.0,WeatherDisplay:10.37,2013-05-22 06:01:00,
2013-05-22 01:06:00,53.2,52.7,29.84,NNE,31,0.0,0.0,98,0.00,CLR,,0.00,0.0,WeatherDisplay:10.37,2013-05-22 06:06:00,
2013-05-22 01:11:00,53.1,52.6,29.84,NNE,31,0.0,0.0,98,0.00,CLR,,0.00,0.0,WeatherDisplay:10.37,2013-05-22 06:11:00,
2013-05-22 01:16:00,53.1,52.6,29.84,NNE,31,0.0,0.0,98,0.00,CLR,,0.00,0.0,WeatherDisplay:10.37,2013-05-22 06:16:00,
2013-05-22 01:21:00,53.2,52.7,29.84,NNE,31,0.0,0.0,98,0.00,CLR,,0.00,0.0,WeatherDisplay:10.37,2013-05-22 06:21:00,
2013-05-22 01:26:00,53.5,52.9,29.85,NNE,31,0.0,0.0,98,0.00,CLR,,0.00,0.0,WeatherDisplay:10.37,2013-05-22 06:26:00,
2013-05-22 01:31:00,53.6,53.0,29.85,NNE,31,0.0,0.0,98,0.00,CLR,,0.00,0.0,WeatherDisplay:10.37,2013-05-22 06:31:00,
2013-05-22 01:36:00,53.8,53.2,29.85,NNE,31,0.0,0.0,98,0.00,CLR,,0.00,0.0,WeatherDisplay:10.37,2013-05-22 06:36:00,
2013-05-22 01:41:00,53.5,52.9,29.85,NNE,31,0.0,0.0,98,0.00,CLR,,0.00,0.0,WeatherDisplay:10.37,2013-05-22 06:41:00,
2013-05-22 01:46:00,53.3,52.8,29.85,NNE,31,0.0,0.0,98,0.00,CLR,,0.00,0.0,WeatherDisplay:10.37,2013-05-22 06:46:00,
2013-05-22 01:51:00,53.5,52.9,29.85,NNE,31,0.0,0.0,98,0.00,CLR,,0.00,0.0,WeatherDisplay:10.37,2013-05-22 06:51:00,
2013-05-22 01:56:00,53.6,53.0,29.85,NNE,31,0.0,0.0,98,0.00,CLR,,0.00,0.0,WeatherDisplay:10.37,2013-05-22 06:56:00,
2013-05-22 02:01:00,53.4,52.8,29.85,NNE,31,0.0,0.0,98,0.00,CLR,,0.00,0.0,WeatherDisplay:10.37,2013-05-22 07:01:00,
2013-05-22 02:06:00,53.3,52.8,29.85,NNE,31,0.0,0.0,98,0.00,CLR,,0.00,0.0,WeatherDisplay:10.37,2013-05-22 07:06:00,
2013-05-22 02:11:00,53.5,52.9,29.85,NNE,31,0.0,0.0,98,0.00,CLR,,0.00,0.0,WeatherDisplay:10.37,2013-05-22 07:11:00,
2013-05-22 02:16:00,52.8,52.3,29.84,NNE,31,0.0,0.0,98,0.00,CLR,,0.00,0.0,WeatherDisplay:10.37,2013-05-22 07:16:00,
2013-05-22 02:21:00,52.0,51.5,29.84,NNE,31,0.0,0.0,98,0.00,CLR,,0.00,0.0,WeatherDisplay:10.37,2013-05-22 07:21:00,
2013-05-22 02:26:00,52.4,51.9,29.84,NNE,31,0.0,0.0,98,0.00,CLR,,0.00,0.0,WeatherDisplay:10.37,2013-05-22 07:26:00,
2013-05-22 02:31:00,52.7,52.2,29.84,NNE,31,0.0,0.0,98,0.00,CLR,,0.00,0.0,WeatherDisplay:10.37,2013-05-22 07:31:00,
2013-05-22 02:36:00,52.8,52.3,29.84,NNE,31,0.0,0.0,98,0.00,CLR,,0.00,0.0,WeatherDisplay:10.37,2013-05-22 07:36:00,
2013-05-22 02:41:00,52.9,52.4,29.84,NNE,31,0.0,0.0,98,0.00,CLR,,0.00,0.0,WeatherDisplay:10.37,2013-05-22 07:41:00,
2013-05-22 02:46:00,52.9,52.4,29.84,NNE,31,0.0,0.0,98,0.00,CLR,,0.00,0.0,WeatherDisplay:10.37,2013-05-22 07:46:00,
2013-05-22 02:51:00,53.3,52.8,29.84,NNE,31,0.0,0.0,98,0.00,CLR,,0.00,0.0,WeatherDisplay:10.37,2013-05-22 07:51:00,
2013-05-22 02:56:00,52.8,52.3,29.84,NNE,31,0.0,0.0,98,0.00,CLR,,0.00,0.0,WeatherDisplay:10.37,2013-05-22 07:56:00,
2013-05-22 03:01:00,52.6,52.1,29.83,NNE,31,0.0,0.0,98,0.00,CLR,,0.00,0.0,WeatherDisplay:10.37,2013-05-22 08:01:00,
2013-05-22 03:06:00,52.2,51.7,29.83,NNE,31,0.0,0.0,98,0.00,CLR,,0.00,0.0,WeatherDisplay:10.37,2013-05-22 08:06:00,
2013-05-22 03:11:00,52.3,51.8,29.84,NNE,31,0.0,0.0,98,0.00,CLR,,0.00,0.0,WeatherDisplay:10.37,2013-05-22 08:11:00,
2013-05-22 03:16:00,52.5,52.0,29.84,West,270,2.3,3.5,98,0.00,CLR,,0.00,0.0,WeatherDisplay:10.37,2013-05-22 08:16:00,
2013-05-22 03:21:00,53.0,52.7,29.84,West,270,0.0,1.1,99,0.00,CLR,,0.00,0.0,WeatherDisplay:10.37,2013-05-22 08:21:00,
2013-05-22 03:26:00,52.4,51.9,29.84,West,270,0.0,0.0,98,0.00,CLR,,0.00,0.0,WeatherDisplay:10.37,2013-05-22 08:26:00,
2013-05-22 03:31:00,52.5,52.2,29.84,West,270,0.0,0.0,99,0.00,CLR,,0.00,0.0,WeatherDisplay:10.37,2013-05-22 08:31:00,
2013-05-22 03:36:00,51.9,51.4,29.84,West,270,0.0,0.0,98,0.00,CLR,,0.00,0.0,WeatherDisplay:10.37,2013-05-22 08:36:00,
2013-05-22 03:41:00,51.8,51.5,29.84,West,270,0.0,0.0,99,0.00,CLR,,0.00,0.0,WeatherDisplay:10.37,2013-05-22 08:41:00,
2013-05-22 03:46:00,51.6,51.3,29.84,West,270,0.0,0.0,99,0.00,CLR,,0.00,0.0,WeatherDisplay:10.37,2013-05-22 08:46:00,
2013-05-22 03:51:00,51.5,51.0,29.84,West,270,0.0,0.0,98,0.00,CLR,,0.00,0.0,WeatherDisplay:10.37,2013-05-22 08:51:00,
2013-05-22 03:56:00,51.2,50.7,29.84,West,270,0.0,0.0,98,0.00,CLR,,0.00,0.0,WeatherDisplay:10.37,2013-05-22 08:56:00,
2013-05-22 04:01:00,51.1,50.6,29.84,West,270,0.0,0.0,98,0.00,CLR,,0.00,0.0,WeatherDisplay:10.37,2013-05-22 09:01:00,
2013-05-22 04:06:00,50.9,50.4,29.84,West,270,0.0,0.0,98,0.00,CLR,,0.00,0.0,WeatherDisplay:10.37,2013-05-22 09:06:00,
2013-05-22 04:11:00,51.1,50.8,29.84,West,270,0.0,0.0,99,0.00,CLR,,0.00,0.0,WeatherDisplay:10.37,2013-05-22 09:11:00,
2013-05-22 04:16:00,51.2,50.7,29.84,West,270,0.0,0.0,98,0.00,CLR,,0.00,0.0,WeatherDisplay:10.37,2013-05-22 09:16:00,
2013-05-22 04:21:00,51.2,50.7,29.84,West,270,0.0,0.0,98,0.00,CLR,,0.00,0.0,WeatherDisplay:10.37,2013-05-22 09:21:00,
2013-05-22 04:26:00,51.2,50.9,29.83,West,270,0.0,0.0,99,0.00,CLR,,0.00,0.0,WeatherDisplay:10.37,2013-05-22 09:26:00,
2013-05-22 04:31:00,50.9,50.4,29.83,West,270,0.0,0.0,98,0.00,CLR,,0.00,0.0,WeatherDisplay:10.37,2013-05-22 09:31:00,
2013-05-22 04:36:00,50.6,50.3,29.84,West,270,0.0,0.0,99,0.00,CLR,,0.00,0.0,WeatherDisplay:10.37,2013-05-22 09:36:00,
2013-05-22 04:41:00,50.8,50.3,29.84,West,270,1.3,3.5,98,0.00,CLR,,0.00,0.0,WeatherDisplay:10.37,2013-05-22 09:41:00,
2013-05-22 04:46:00,51.3,51.0,29.85,West,270,1.4,2.3,99,0.00,CLR,,0.00,0.0,WeatherDisplay:10.37,2013-05-22 09:46:00,
2013-05-22 04:51:00,51.7,51.4,29.85,West,270,1.0,2.3,99,0.00,CLR,,0.00,0.0,WeatherDisplay:10.37,2013-05-22 09:51:00,
2013-05-22 04:56:00,52.5,52.2,29.85,West,270,1.1,2.3,99,0.00,CLR,,0.00,0.0,WeatherDisplay:10.37,2013-05-22 09:56:00,
2013-05-22 05:01:00,51.5,51.0,29.85,West,270,0.0,0.0,98,0.00,CLR,,0.00,0.0,WeatherDisplay:10.37,2013-05-22 10:01:00,
2013-05-22 05:06:00,50.5,50.2,29.85,West,270,0.0,0.0,99,0.00,CLR,,0.00,0.0,WeatherDisplay:10.37,2013-05-22 10:06:00,
2013-05-22 05:11:00,50.3,49.8,29.84,West,270,0.0,0.0,98,0.00,CLR,,0.00,0.0,WeatherDisplay:10.37,2013-05-22 10:11:00,
2013-05-22 05:16:00,50.4,50.1,29.84,West,270,0.0,0.0,99,0.00,CLR,,0.00,0.0,WeatherDisplay:10.37,2013-05-22 10:16:00,
2013-05-22 05:21:00,50.3,49.8,29.84,West,270,0.0,0.0,98,0.00,CLR,,0.00,0.0,WeatherDisplay:10.37,2013-05-22 10:21:00,
2013-05-22 05:26:00,50.3,49.8,29.85,West,270,0.0,0.0,98,0.00,CLR,,0.00,0.0,WeatherDisplay:10.37,2013-05-22 10:26:00,
2013-05-22 05:31:00,50.5,50.2,29.85,West,270,0.0,0.0,99,0.00,CLR,,0.00,0.0,WeatherDisplay:10.37,2013-05-22 10:31:00,
2013-05-22 05:36:00,50.7,50.4,29.85,West,270,0.0,0.0,99,0.00,CLR,,0.00,0.0,WeatherDisplay:10.37,2013-05-22 10:36:00,
2013-05-22 05:41:00,50.5,50.2,29.85,West,270,0.0,0.0,99,0.00,CLR,,0.00,0.0,WeatherDisplay:10.37,2013-05-22 10:41:00,
2013-05-22 05:46:00,50.1,49.6,29.85,West,270,0.0,0.0,98,0.00,CLR,,0.00,0.0,WeatherDisplay:10.37,2013-05-22 10:46:00,
2013-05-22 05:51:00,49.9,49.4,29.85,West,270,0.0,0.0,98,0.00,CLR,,0.00,0.0,WeatherDisplay:10.37,2013-05-22 10:51:00,
2013-05-22 05:56:00,50.1,49.8,29.84,West,270,0.0,0.0,99,0.00,CLR,,0.00,0.0,WeatherDisplay:10.37,2013-05-22 10:56:00,
2013-05-22 06:01:00,50.0,49.7,29.85,West,270,0.0,0.0,99,0.00,CLR,,0.00,0.0,WeatherDisplay:10.37,2013-05-22 11:01:00,
2013-05-22 06:06:00,50.2,49.9,29.85,West,270,0.0,0.0,99,0.00,CLR,,0.00,0.0,WeatherDisplay:10.37,2013-05-22 11:06:00,
2013-05-22 06:11:00,50.2,49.7,29.86,West,270,0.0,0.0,98,0.00,CLR,,0.00,0.0,WeatherDisplay:10.37,2013-05-22 11:11:00,
2013-05-22 06:16:00,50.3,49.8,29.86,West,270,0.0,0.0,98,0.00,CLR,,0.00,0.0,WeatherDisplay:10.37,2013-05-22 11:16:00,
2013-05-22 06:21:00,50.4,49.9,29.86,West,270,0.7,1.1,98,0.00,CLR,,0.00,0.0,WeatherDisplay:10.37,2013-05-22 11:21:00,
2013-05-22 06:26:00,50.1,49.8,29.86,West,270,0.9,2.3,99,0.00,CLR,,0.00,0.0,WeatherDisplay:10.37,2013-05-22 11:26:00,
2013-05-22 06:31:00,50.5,50.2,29.86,West,270,0.0,0.0,99,0.00,CLR,,0.00,5.5,WeatherDisplay:10.37,2013-05-22 11:31:00,
2013-05-22 06:36:00,50.5,50.2,29.87,West,270,0.0,0.0,99,0.00,CLR,,0.00,9.9,WeatherDisplay:10.37,2013-05-22 11:36:00,
2013-05-22 06:41:00,51.1,50.8,29.88,West,270,0.0,0.0,99,0.00,CLR,,0.00,12.1,WeatherDisplay:10.37,2013-05-22 11:41:00,
2013-05-22 06:46:00,51.6,51.3,29.88,West,270,0.5,2.3,99,0.00,CLR,,0.00,13.2,WeatherDisplay:10.37,2013-05-22 11:46:00,
2013-05-22 06:51:00,51.8,51.5,29.88,West,270,0.2,1.1,99,0.00,CLR,,0.00,15.4,WeatherDisplay:10.37,2013-05-22 11:51:00,
2013-05-22 06:56:00,51.8,51.5,29.88,West,270,0.8,2.3,99,0.00,CLR,,0.00,19.8,WeatherDisplay:10.37,2013-05-22 11:56:00,
2013-05-22 07:01:00,51.9,51.6,29.88,West,270,1.8,3.5,99,0.00,CLR,,0.00,19.8,WeatherDisplay:10.37,2013-05-22 12:01:00,
2013-05-22 07:06:00,52.0,51.7,29.88,West,270,2.1,3.5,99,0.00,CLR,,0.00,27.5,WeatherDisplay:10.37,2013-05-22 12:06:00,
2013-05-22 07:11:00,52.5,52.2,29.89,West,270,1.3,3.5,99,0.00,CLR,,0.00,23.1,WeatherDisplay:10.37,2013-05-22 12:11:00,
2013-05-22 07:16:00,52.8,52.5,29.89,West,270,0.0,0.0,99,0.00,CLR,,0.00,25.3,WeatherDisplay:10.37,2013-05-22 12:16:00,
2013-05-22 07:21:00,53.3,53.0,29.89,West,270,0.0,0.0,99,0.00,CLR,,0.00,36.3,WeatherDisplay:10.37,2013-05-22 12:21:00,
2013-05-22 07:26:00,53.6,53.3,29.89,West,270,0.0,0.0,99,0.00,CLR,,0.00,30.8,WeatherDisplay:10.37,2013-05-22 12:26:00,
2013-05-22 07:31:00,53.8,53.5,29.89,West,270,0.0,0.0,99,0.00,CLR,,0.00,38.5,WeatherDisplay:10.37,2013-05-22 12:31:00,
2013-05-22 07:36:00,54.5,54.2,29.88,West,270,0.2,1.1,99,0.00,CLR,,0.00,79.2,WeatherDisplay:10.37,2013-05-22 12:36:00,
2013-05-22 07:41:00,54.7,54.4,29.89,West,270,0.0,0.0,99,0.00,CLR,,0.00,53.9,WeatherDisplay:10.37,2013-05-22 12:41:00,
2013-05-22 07:46:00,54.9,54.6,29.89,West,270,0.0,0.0,99,0.00,CLR,,0.00,56.1,WeatherDisplay:10.37,2013-05-22 12:46:00,
2013-05-22 07:51:00,55.6,55.3,29.88,West,270,1.6,3.5,99,0.00,CLR,,0.00,173.8,WeatherDisplay:10.37,2013-05-22 12:51:00,
2013-05-22 07:56:00,56.1,55.8,29.88,West,270,0.0,0.0,99,0.00,CLR,,0.00,46.2,WeatherDisplay:10.37,2013-05-22 12:56:00,
2013-05-22 08:01:00,56.6,56.3,29.88,West,270,0.0,0.0,99,0.00,CLR,,0.00,46.2,WeatherDisplay:10.37,2013-05-22 13:01:00,
2013-05-22 08:06:00,57.0,56.7,29.88,West,270,0.0,0.0,99,0.00,CLR,,0.00,42.9,WeatherDisplay:10.37,2013-05-22 13:06:00,
2013-05-22 08:11:00,57.2,56.9,29.89,West,270,0.0,0.0,99,0.00,CLR,,0.00,94.6,WeatherDisplay:10.37,2013-05-22 13:11:00,
2013-05-22 08:16:00,57.7,57.4,29.89,West,270,0.0,0.0,99,0.00,CLR,,0.00,115.5,WeatherDisplay:10.37,2013-05-22 13:16:00,
2013-05-22 08:21:00,58.2,57.9,29.89,West,270,0.0,0.0,99,0.00,CLR,,0.00,299.2,WeatherDisplay:10.37,2013-05-22 13:21:00,
2013-05-22 08:26:00,59.1,58.8,29.89,West,270,0.0,0.0,99,0.00,CLR,,0.00,331.1,WeatherDisplay:10.37,2013-05-22 13:26:00,
2013-05-22 08:31:00,59.8,59.5,29.90,West,270,0.0,0.0,99,0.00,CLR,,0.00,336.6,WeatherDisplay:10.37,2013-05-22 13:31:00,
2013-05-22 08:36:00,60.4,59.8,29.90,West,270,0.0,0.0,98,0.00,CLR,,0.00,363.0,WeatherDisplay:10.37,2013-05-22 13:36:00,
2013-05-22 08:41:00,60.9,60.3,29.90,West,270,0.0,0.0,98,0.00,CLR,,0.00,380.6,WeatherDisplay:10.37,2013-05-22 13:41:00,
2013-05-22 08:46:00,61.5,60.6,29.90,West,270,0.0,0.0,97,0.00,CLR,,0.00,400.4,WeatherDisplay:10.37,2013-05-22 13:46:00,
2013-05-22 08:51:00,62.1,60.7,29.90,West,270,0.0,0.0,95,0.00,CLR,,0.00,418.0,WeatherDisplay:10.37,2013-05-22 13:51:00,
2013-05-22 08:56:00,62.6,60.8,29.91,West,270,0.0,0.0,94,0.00,CLR,,0.00,435.6,WeatherDisplay:10.37,2013-05-22 13:56:00,
2013-05-22 09:01:00,63.2,60.8,29.91,West,270,0.0,0.0,92,0.00,CLR,,0.00,458.7,WeatherDisplay:10.37,2013-05-22 14:01:00,
2013-05-22 09:06:00,64.0,61.9,29.92,WSW,258,1.8,5.0,93,0.00,CLR,,0.00,492.8,WeatherDisplay:10.37,2013-05-22 14:06:00,
2013-05-22 09:11:00,64.4,62.0,29.92,WSW,238,2.0,3.5,92,0.00,CLR,,0.00,512.6,WeatherDisplay:10.37,2013-05-22 14:11:00,
2013-05-22 09:16:00,64.9,62.2,29.92,WSW,238,1.2,2.3,91,0.00,CLR,,0.00,528.0,WeatherDisplay:10.37,2013-05-22 14:16:00,
2013-05-22 09:21:00,65.4,62.7,29.92,WSW,238,1.1,2.0,91,0.00,CLR,,0.00,546.7,WeatherDisplay:10.37,2013-05-22 14:21:00,
2013-05-22 09:26:00,66.2,62.9,29.93,SW,227,3.1,5.8,89,0.00,CLR,,0.00,566.5,WeatherDisplay:10.37,2013-05-22 14:26:00,
2013-05-22 09:31:00,65.8,62.5,29.93,SW,222,2.0,3.5,89,0.00,CLR,,0.00,584.1,WeatherDisplay:10.37,2013-05-22 14:31:00,
2013-05-22 09:36:00,65.9,62.2,29.93,SW,218,5.3,6.9,88,0.00,CLR,,0.00,601.7,WeatherDisplay:10.37,2013-05-22 14:36:00,
2013-05-22 09:41:00,66.0,62.7,29.93,SW,218,0.9,2.3,89,0.00,CLR,,0.00,619.3,WeatherDisplay:10.37,2013-05-22 14:41:00,
2013-05-22 09:46:00,66.5,62.8,29.93,SW,218,0.4,2.3,88,0.00,CLR,,0.00,638.0,WeatherDisplay:10.37,2013-05-22 14:46:00,
2013-05-22 09:51:00,67.4,62.4,29.93,SW,219,5.7,6.9,84,0.00,CLR,,0.00,655.6,WeatherDisplay:10.37,2013-05-22 14:51:00,
2013-05-22 09:56:00,68.3,62.6,29.93,SW,219,4.4,6.0,82,0.00,CLR,,0.00,673.2,WeatherDisplay:10.37,2013-05-22 14:56:00,
2013-05-22 10:01:00,68.6,62.5,29.93,SSW,212,5.5,7.0,81,0.00,CLR,,0.00,688.6,WeatherDisplay:10.37,2013-05-22 15:01:00,
2013-05-22 10:06:00,69.3,62.5,29.93,SW,230,5.8,10.4,79,0.00,CLR,,0.00,701.8,WeatherDisplay:10.37,2013-05-22 15:06:00,
2013-05-22 10:11:00,69.6,63.5,29.94,SW,220,5.4,8.1,81,0.00,CLR,,0.00,717.2,WeatherDisplay:10.37,2013-05-22 15:11:00,
2013-05-22 10:16:00,69.9,63.4,29.93,SW,219,4.3,5.0,80,0.00,CLR,,0.00,732.6,WeatherDisplay:10.37,2013-05-22 15:16:00,
2013-05-22 10:21:00,70.0,62.5,29.94,SW,218,7.0,8.1,77,0.00,CLR,,0.00,750.2,WeatherDisplay:10.37,2013-05-22 15:21:00,
2013-05-22 10:26:00,69.6,62.4,29.94,SW,220,3.0,3.5,78,0.00,CLR,,0.00,763.4,WeatherDisplay:10.37,2013-05-22 15:26:00,
2013-05-22 10:31:00,70.3,63.5,29.94,SW,220,3.3,5.8,79,0.00,CLR,,0.00,778.8,WeatherDisplay:10.37,2013-05-22 15:31:00,
2013-05-22 10:36:00,71.3,64.4,29.94,SW,220,2.6,5.8,79,0.00,CLR,,0.00,794.2,WeatherDisplay:10.37,2013-05-22 15:36:00,
2013-05-22 10:41:00,72.2,62.7,29.94,West,261,4.8,8.1,72,0.00,CLR,,0.00,806.3,WeatherDisplay:10.37,2013-05-22 15:41:00,
2013-05-22 10:46:00,72.1,62.2,29.94,WSW,256,2.7,4.0,71,0.00,CLR,,0.00,823.9,WeatherDisplay:10.37,2013-05-22 15:46:00,
2013-05-22 10:51:00,72.5,62.2,29.94,SW,220,4.0,5.8,70,0.00,CLR,,0.00,834.9,WeatherDisplay:10.37,2013-05-22 15:51:00,
2013-05-22 10:56:00,73.0,63.0,29.94,WSW,248,1.3,5.0,71,0.00,CLR,,0.00,849.2,WeatherDisplay:10.37,2013-05-22 15:56:00,
2013-05-22 11:01:00,73.1,61.9,29.94,WSW,241,5.1,8.1,68,0.00,CLR,,0.00,864.6,WeatherDisplay:10.37,2013-05-22 16:01:00,
2013-05-22 11:06:00,73.2,62.0,29.94,WSW,239,2.7,5.0,68,0.00,CLR,,0.00,874.5,WeatherDisplay:10.37,2013-05-22 16:06:00,
2013-05-22 11:11:00,73.9,62.2,29.94,West,262,4.4,8.0,67,0.00,CLR,,0.00,887.7,WeatherDisplay:10.37,2013-05-22 16:11:00,
2013-05-22 11:16:00,73.5,61.9,29.94,WSW,241,4.2,6.9,67,0.00,CLR,,0.00,898.7,WeatherDisplay:10.37,2013-05-22 16:16:00,
2013-05-22 11:21:00,73.5,62.3,29.94,WSW,245,5.7,7.0,68,0.00,CLR,,0.00,908.6,WeatherDisplay:10.37,2013-05-22 16:21:00,
2013-05-22 11:26:00,74.2,62.5,29.94,WNW,296,2.1,6.0,67,0.00,CLR,,0.00,918.5,WeatherDisplay:10.37,2013-05-22 16:26:00,
2013-05-22 11:31:00,75.3,62.3,29.94,WNW,295,1.1,3.5,64,0.00,CLR,,0.00,933.9,WeatherDisplay:10.37,2013-05-22 16:31:00,
2013-05-22 11:36:00,75.7,63.1,29.94,WNW,292,3.0,5.8,65,0.00,CLR,,0.00,943.8,WeatherDisplay:10.37,2013-05-22 16:36:00,
2013-05-22 11:41:00,76.0,62.0,29.94,WNW,292,1.1,3.5,62,0.00,CLR,,0.00,954.8,WeatherDisplay:10.37,2013-05-22 16:41:00,
2013-05-22 11:46:00,75.3,61.8,29.94,WNW,287,0.6,2.3,63,0.00,CLR,,0.00,962.5,WeatherDisplay:10.37,2013-05-22 16:46:00,
2013-05-22 11:51:00,75.5,61.1,29.94,SSW,205,5.2,6.9,61,0.00,CLR,,0.00,972.4,WeatherDisplay:10.37,2013-05-22 16:51:00,
2013-05-22 11:56:00,75.7,61.3,29.94,SSW,199,5.3,8.1,61,0.00,CLR,,0.00,982.3,WeatherDisplay:10.37,2013-05-22 16:56:00,
2013-05-22 12:01:00,76.0,63.8,29.94,SSW,207,4.9,9.2,66,0.00,CLR,,0.00,990.0,WeatherDisplay:10.37,2013-05-22 17:01:00,
2013-05-22 12:06:00,76.0,61.1,29.94,SW,229,5.0,8.1,60,0.00,CLR,,0.00,997.7,WeatherDisplay:10.37,2013-05-22 17:06:00,
2013-05-22 12:11:00,75.5,59.7,29.93,SW,228,0.0,0.0,58,0.00,CLR,,0.00,1007.6,WeatherDisplay:10.37,2013-05-22 17:11:00,
2013-05-22 12:16:00,76.1,60.7,29.93,WSW,243,1.2,2.3,59,0.00,SCT,,0.00,1015.3,WeatherDisplay:10.37,2013-05-22 17:16:00,
2013-05-22 12:21:00,76.4,63.8,29.93,SW,234,0.9,3.5,65,0.00,SCT,,0.00,1020.8,WeatherDisplay:10.37,2013-05-22 17:21:00,
2013-05-22 12:26:00,77.1,62.6,29.93,SW,230,0.2,2.0,61,0.00,SCT,,0.00,1026.3,WeatherDisplay:10.37,2013-05-22 17:26:00,
2013-05-22 12:31:00,77.7,60.8,29.93,WNW,295,0.4,3.5,56,0.00,SCT,,0.00,1034.0,WeatherDisplay:10.37,2013-05-22 17:31:00,
2013-05-22 12:36:00,77.1,61.7,29.93,WNW,295,0.3,1.1,59,0.00,SCT,,0.00,1038.4,WeatherDisplay:10.37,2013-05-22 17:36:00,
2013-05-22 12:41:00,77.9,61.4,29.93,WNW,294,1.0,2.3,57,0.00,SCT,,0.00,1049.4,WeatherDisplay:10.37,2013-05-22 17:41:00,
2013-05-22 12:46:00,78.4,61.9,29.93,West,280,1.6,3.5,57,0.00,CLR,,0.00,1049.4,WeatherDisplay:10.37,2013-05-22 17:46:00,
2013-05-22 12:51:00,77.7,61.3,29.93,West,280,0.8,2.3,57,0.00,CLR,,0.00,1058.2,WeatherDisplay:10.37,2013-05-22 17:51:00,
2013-05-22 12:56:00,78.2,60.2,29.93,SSW,200,1.9,7.0,54,0.00,CLR,,0.00,976.8,WeatherDisplay:10.37,2013-05-22 17:56:00,
2013-05-22 13:01:00,78.0,60.5,29.93,SSW,200,0.4,4.0,55,0.00,CLR,,0.00,1065.9,WeatherDisplay:10.37,2013-05-22 18:01:00,
2013-05-22 13:06:00,78.4,61.4,29.93,SSW,208,2.5,3.5,56,0.00,CLR,,0.00,1065.9,WeatherDisplay:10.37,2013-05-22 18:06:00,
2013-05-22 13:11:00,79.2,62.1,29.93,SSW,207,4.4,6.9,56,0.00,CLR,,0.00,1067.0,WeatherDisplay:10.37,2013-05-22 18:11:00,
2013-05-22 13:16:00,79.1,63.1,29.93,SSW,208,3.2,4.6,58,0.00,CLR,,0.00,1074.7,WeatherDisplay:10.37,2013-05-22 18:16:00,
2013-05-22 13:21:00,79.1,60.5,29.92,SSW,210,3.8,4.6,53,0.00,CLR,,0.00,1096.7,WeatherDisplay:10.37,2013-05-22 18:21:00,
2013-05-22 13:26:00,79.1,62.6,29.92,SSW,210,1.9,3.5,57,0.00,CLR,,0.00,1036.2,WeatherDisplay:10.37,2013-05-22 18:26:00,
2013-05-22 13:31:00,79.4,61.3,29.92,SSW,199,2.1,11.5,54,0.00,CLR,,0.00,684.2,WeatherDisplay:10.37,2013-05-22 18:31:00,
2013-05-22 13:36:00,79.3,59.0,29.92,SW,219,3.2,6.9,50,0.00,CLR,,0.00,1156.1,WeatherDisplay:10.37,2013-05-22 18:36:00,
2013-05-22 13:41:00,80.1,59.2,29.92,SSW,204,0.8,2.3,49,0.00,CLR,,0.00,778.8,WeatherDisplay:10.37,2013-05-22 18:41:00,
2013-05-22 13:46:00,80.1,59.8,29.92,SSW,204,4.0,5.0,50,0.00,CLR,,0.00,1171.5,WeatherDisplay:10.37,2013-05-22 18:46:00,
2013-05-22 13:51:00,80.1,59.8,29.91,SSW,204,2.5,4.6,50,0.00,CLR,,0.00,1094.5,WeatherDisplay:10.37,2013-05-22 18:51:00,
2013-05-22 13:56:00,79.6,60.4,29.91,WSW,241,4.7,8.1,52,0.00,CLR,,0.00,678.7,WeatherDisplay:10.37,2013-05-22 18:56:00,
2013-05-22 14:01:00,80.4,58.3,29.91,SW,236,1.3,2.3,47,0.00,CLR,,0.00,614.9,WeatherDisplay:10.37,2013-05-22 19:01:00,
2013-05-22 14:06:00,80.0,59.7,29.91,SW,236,2.2,3.5,50,0.00,CLR,,0.00,640.2,WeatherDisplay:10.37,2013-05-22 19:06:00,
2013-05-22 14:11:00,80.7,60.3,29.91,SW,232,3.7,5.8,50,0.00,CLR,,0.00,1107.7,WeatherDisplay:10.37,2013-05-22 19:11:00,
2013-05-22 14:16:00,80.5,62.3,29.91,SSW,210,7.8,9.2,54,0.00,CLR,,0.00,1090.1,WeatherDisplay:10.37,2013-05-22 19:16:00,
2013-05-22 14:21:00,80.9,61.6,29.91,SSW,204,2.1,4.0,52,0.00,CLR,,0.00,1069.2,WeatherDisplay:10.37,2013-05-22 19:21:00,
2013-05-22 14:26:00,81.4,59.8,29.91,SW,221,3.7,5.8,48,0.00,CLR,,0.00,1043.9,WeatherDisplay:10.37,2013-05-22 19:26:00,
2013-05-22 14:31:00,81.9,61.4,29.90,SW,216,5.2,7.0,50,0.00,CLR,,0.00,1036.2,WeatherDisplay:10.37,2013-05-22 19:31:00,
2013-05-22 14:36:00,81.2,60.2,29.90,SW,232,2.3,5.8,49,0.00,CLR,,0.00,1025.2,WeatherDisplay:10.37,2013-05-22 19:36:00,
2013-05-22 14:41:00,81.3,62.5,29.90,WSW,241,6.4,9.2,53,0.00,CLR,,0.00,1017.5,WeatherDisplay:10.37,2013-05-22 19:41:00,
2013-05-22 14:46:00,82.7,62.2,29.90,WSW,239,4.9,7.0,50,0.00,CLR,,0.00,1013.1,WeatherDisplay:10.37,2013-05-22 19:46:00,
2013-05-22 14:51:00,82.3,60.6,29.90,WSW,238,2.9,4.6,48,0.00,CLR,,0.00,1009.8,WeatherDisplay:10.37,2013-05-22 19:51:00,
2013-05-22 14:56:00,81.6,61.2,29.90,WSW,237,3.2,5.0,50,0.00,CLR,,0.00,999.9,WeatherDisplay:10.37,2013-05-22 19:56:00,
2013-05-22 15:01:00,82.0,60.4,29.90,SSW,207,6.9,11.5,48,0.00,CLR,,0.00,995.5,WeatherDisplay:10.37,2013-05-22 20:01:00,
2013-05-22 15:06:00,82.3,60.6,29.89,SSW,210,5.7,9.2,48,0.00,CLR,,0.00,984.5,WeatherDisplay:10.37,2013-05-22 20:06:00,
2013-05-22 15:11:00,82.7,61.6,29.89,SSW,210,2.5,4.6,49,0.00,CLR,,0.00,976.8,WeatherDisplay:10.37,2013-05-22 20:11:00,
2013-05-22 15:16:00,82.3,59.4,29.89,SSW,210,4.8,6.9,46,0.00,CLR,,0.00,966.9,WeatherDisplay:10.37,2013-05-22 20:16:00,
2013-05-22 15:21:00,83.1,64.7,29.89,SSW,210,2.7,4.0,54,0.00,CLR,,0.00,954.8,WeatherDisplay:10.37,2013-05-22 20:21:00,
2013-05-22 15:26:00,83.4,59.8,29.89,SSW,210,1.6,3.5,45,0.00,CLR,,0.00,946.0,WeatherDisplay:10.37,2013-05-22 20:26:00,
2013-05-22 15:31:00,83.8,62.6,29.89,SSW,213,5.3,6.9,49,0.00,CLR,,0.00,933.9,WeatherDisplay:10.37,2013-05-22 20:31:00,
2013-05-22 15:36:00,83.6,63.6,29.89,SW,214,2.4,3.5,51,0.00,CLR,,0.00,921.8,WeatherDisplay:10.37,2013-05-22 20:36:00,
2013-05-22 15:41:00,83.6,63.6,29.88,SW,223,5.2,8.1,51,0.00,CLR,,0.00,913.0,WeatherDisplay:10.37,2013-05-22 20:41:00,
2013-05-22 15:46:00,83.5,61.7,29.88,SW,223,0.0,1.1,48,0.00,CLR,,0.00,895.4,WeatherDisplay:10.37,2013-05-22 20:46:00,
2013-05-22 15:51:00,83.4,64.5,29.88,SSW,208,2.5,5.0,53,0.00,CLR,,0.00,889.9,WeatherDisplay:10.37,2013-05-22 20:51:00,
2013-05-22 15:56:00,82.4,62.5,29.88,SSW,203,2.1,5.8,51,0.00,CLR,,0.00,874.5,WeatherDisplay:10.37,2013-05-22 20:56:00,
2013-05-22 16:01:00,83.1,64.2,29.87,South,176,2.3,8.1,53,0.00,CLR,,0.00,864.6,WeatherDisplay:10.37,2013-05-22 21:01:00,
2013-05-22 16:06:00,82.9,64.5,29.87,South,172,0.9,2.3,54,0.00,CLR,,0.00,849.2,WeatherDisplay:10.37,2013-05-22 21:06:00,
2013-05-22 16:11:00,83.2,63.7,29.87,SSE,162,3.6,5.8,52,0.00,CLR,,0.00,831.6,WeatherDisplay:10.37,2013-05-22 21:11:00,
2013-05-22 16:16:00,82.9,62.9,29.87,SSE,160,1.6,7.0,51,0.00,CLR,,0.00,826.1,WeatherDisplay:10.37,2013-05-22 21:16:00,
2013-05-22 16:21:00,83.0,64.1,29.86,SSE,157,0.9,4.6,53,0.00,CLR,,0.00,810.7,WeatherDisplay:10.37,2013-05-22 21:21:00,
2013-05-22 16:26:00,83.1,63.1,29.86,SSE,156,0.9,4.6,51,0.00,CLR,,0.00,796.4,WeatherDisplay:10.37,2013-05-22 21:26:00,
2013-05-22 16:31:00,83.4,64.5,29.86,SSE,153,1.5,10.4,53,0.00,CLR,,0.00,785.4,WeatherDisplay:10.37,2013-05-22 21:31:00,
2013-05-22 16:36:00,83.2,63.2,29.86,SSE,153,3.7,5.8,51,0.00,CLR,,0.00,765.6,WeatherDisplay:10.37,2013-05-22 21:36:00,
2013-05-22 16:41:00,83.2,63.2,29.86,SSE,152,3.4,5.8,51,0.00,CLR,,0.00,750.2,WeatherDisplay:10.37,2013-05-22 21:41:00,
2013-05-22 16:46:00,82.9,61.2,29.86,SSW,199,6.3,10.4,48,0.00,CLR,,0.00,737.0,WeatherDisplay:10.37,2013-05-22 21:46:00,
2013-05-22 16:51:00,82.9,61.2,29.85,SSW,196,5.6,9.2,48,0.00,CLR,,0.00,721.6,WeatherDisplay:10.37,2013-05-22 21:51:00,
2013-05-22 16:56:00,83.1,59.6,29.85,SSW,196,0.4,3.5,45,0.00,CLR,,0.00,707.3,WeatherDisplay:10.37,2013-05-22 21:56:00,
2013-05-22 17:01:00,83.5,64.0,29.85,SSE,152,0.8,3.5,52,0.00,CLR,,0.00,691.9,WeatherDisplay:10.37,2013-05-22 22:01:00,
2013-05-22 17:06:00,83.7,60.7,29.85,SSE,155,3.2,7.0,46,0.00,CLR,,0.00,676.5,WeatherDisplay:10.37,2013-05-22 22:06:00,
2013-05-22 17:11:00,83.4,61.1,29.85,South,175,2.7,10.0,47,0.00,CLR,,0.00,658.9,WeatherDisplay:10.37,2013-05-22 22:11:00,
2013-05-22 17:16:00,83.6,63.0,29.85,SSW,203,7.2,9.2,50,0.00,CLR,,0.00,642.4,WeatherDisplay:10.37,2013-05-22 22:16:00,
2013-05-22 17:21:00,83.2,60.9,29.85,SSW,200,3.4,4.0,47,0.00,CLR,,0.00,627.0,WeatherDisplay:10.37,2013-05-22 22:21:00,
2013-05-22 17:26:00,83.6,60.6,29.85,SSW,200,0.4,2.3,46,0.00,CLR,,0.00,609.4,WeatherDisplay:10.37,2013-05-22 22:26:00,
2013-05-22 17:31:00,84.2,59.3,29.84,South,179,3.9,9.2,43,0.00,CLR,,0.00,594.0,WeatherDisplay:10.37,2013-05-22 22:31:00,
2013-05-22 17:36:00,82.9,58.1,29.85,South,181,6.9,9.2,43,0.00,CLR,,0.00,579.7,WeatherDisplay:10.37,2013-05-22 22:36:00,
2013-05-22 17:41:00,82.9,56.8,29.85,South,180,3.1,5.8,41,0.00,CLR,,0.00,558.8,WeatherDisplay:10.37,2013-05-22 22:41:00,
2013-05-22 17:46:00,82.6,57.2,29.85,South,185,5.9,10.4,42,0.00,CLR,,0.00,539.0,WeatherDisplay:10.37,2013-05-22 22:46:00,
2013-05-22 17:51:00,82.7,57.3,29.84,SSW,193,6.6,11.5,42,0.00,CLR,,0.00,522.5,WeatherDisplay:10.37,2013-05-22 22:51:00,
2013-05-22 17:56:00,82.7,59.8,29.84,SSW,193,2.5,5.0,46,0.00,CLR,,0.00,500.5,WeatherDisplay:10.37,2013-05-22 22:56:00,
2013-05-22 18:01:00,82.5,60.2,29.84,South,188,1.1,3.5,47,0.00,CLR,,0.00,481.8,WeatherDisplay:10.37,2013-05-22 23:01:00,
2013-05-22 18:06:00,82.6,59.7,29.84,South,171,2.1,4.6,46,0.00,CLR,,0.00,464.2,WeatherDisplay:10.37,2013-05-22 23:06:00,
2013-05-22 18:11:00,82.4,56.3,29.84,SSE,163,4.9,10.4,41,0.00,CLR,,0.00,446.6,WeatherDisplay:10.37,2013-05-22 23:11:00,
2013-05-22 18:16:00,82.1,58.0,29.84,SSE,157,3.3,9.2,44,0.00,CLR,,0.00,293.7,WeatherDisplay:10.37,2013-05-22 23:16:00,
2013-05-22 18:21:00,81.7,56.4,29.84,SSE,158,1.6,4.6,42,0.00,CLR,,0.00,408.1,WeatherDisplay:10.37,2013-05-22 23:21:00,
2013-05-22 18:26:00,81.7,55.0,29.84,SSE,158,2.0,5.8,40,0.00,CLR,,0.00,390.5,WeatherDisplay:10.37,2013-05-22 23:26:00,
2013-05-22 18:31:00,81.5,55.5,29.84,SSE,154,4.6,10.4,41,0.00,CLR,,0.00,369.6,WeatherDisplay:10.37,2013-05-22 23:31:00,
2013-05-22 18:36:00,81.3,55.3,29.84,SSE,155,2.5,6.0,41,0.00,CLR,,0.00,349.8,WeatherDisplay:10.37,2013-05-22 23:36:00,
2013-05-22 18:41:00,81.1,55.8,29.84,SSE,163,3.2,6.9,42,0.00,CLR,,0.00,332.2,WeatherDisplay:10.37,2013-05-22 23:41:00,
2013-05-22 18:46:00,80.7,56.8,29.84,SSE,168,1.0,2.3,44,0.00,CLR,,0.00,313.5,WeatherDisplay:10.37,2013-05-22 23:46:00,
2013-05-22 18:51:00,80.5,57.2,29.84,SSW,194,3.4,11.5,45,0.00,CLR,,0.00,293.7,WeatherDisplay:10.37,2013-05-22 23:51:00,
2013-05-22 18:56:00,79.9,57.9,29.84,SSW,194,1.5,4.6,47,0.00,CLR,,0.00,50.6,WeatherDisplay:10.37,2013-05-22 23:56:00,
2013-05-22 19:01:00,79.6,57.0,29.84,SSW,193,0.1,1.1,46,0.00,CLR,,0.00,107.8,WeatherDisplay:10.37,2013-05-23 00:01:00,
2013-05-22 19:06:00,79.5,57.5,29.84,SSW,193,0.5,3.5,47,0.00,CLR,,0.00,191.4,WeatherDisplay:10.37,2013-05-23 00:06:00,
2013-05-22 19:11:00,79.5,58.1,29.85,South,191,0.5,3.0,48,0.00,CLR,,0.00,209.0,WeatherDisplay:10.37,2013-05-23 00:11:00,
2013-05-22 19:16:00,79.5,59.8,29.84,South,191,0.4,2.3,51,0.00,CLR,,0.00,189.2,WeatherDisplay:10.37,2013-05-23 00:16:00,
2013-05-22 19:21:00,79.3,59.0,29.85,South,190,1.6,3.5,50,0.00,CLR,,0.00,163.9,WeatherDisplay:10.37,2013-05-23 00:21:00,
2013-05-22 19:26:00,78.6,60.0,29.85,South,190,0.7,2.3,53,0.00,CLR,,0.00,36.3,WeatherDisplay:10.37,2013-05-23 00:26:00,
2013-05-22 19:31:00,78.2,59.7,29.85,South,189,0.6,2.3,53,0.00,CLR,,0.00,33.0,WeatherDisplay:10.37,2013-05-23 00:31:00,
2013-05-22 19:36:00,77.6,60.2,29.84,South,189,0.1,1.1,55,0.00,CLR,,0.00,30.8,WeatherDisplay:10.37,2013-05-23 00:36:00,
2013-05-22 19:41:00,77.1,60.2,29.84,South,189,0.0,1.1,56,0.00,CLR,,0.00,30.8,WeatherDisplay:10.37,2013-05-23 00:41:00,
2013-05-22 19:46:00,76.8,59.9,29.84,South,189,0.7,2.3,56,0.00,CLR,,0.00,25.3,WeatherDisplay:10.37,2013-05-23 00:46:00,
2013-05-22 19:51:00,76.5,59.6,29.85,South,189,0.8,2.0,56,0.00,CLR,,0.00,23.1,WeatherDisplay:10.37,2013-05-23 00:51:00,
2013-05-22 19:56:00,75.8,61.4,29.85,South,189,0.1,1.1,61,0.00,CLR,,0.00,19.8,WeatherDisplay:10.37,2013-05-23 00:56:00,
2013-05-22 20:01:00,74.7,60.4,29.85,South,189,0.2,2.3,61,0.00,CLR,,0.00,17.6,WeatherDisplay:10.37,2013-05-23 01:01:00,
2013-05-22 20:06:00,73.9,59.6,29.85,South,189,0.0,0.0,61,0.00,CLR,,0.00,15.4,WeatherDisplay:10.37,2013-05-23 01:06:00,
2013-05-22 20:11:00,73.1,59.8,29.85,South,189,0.0,0.0,63,0.00,CLR,,0.00,12.1,WeatherDisplay:10.37,2013-05-23 01:11:00,
2013-05-22 20:16:00,72.4,59.1,29.85,South,189,0.0,0.0,63,0.00,CLR,,0.00,9.9,WeatherDisplay:10.37,2013-05-23 01:16:00,
2013-05-22 20:21:00,71.6,60.5,29.85,South,189,0.0,0.0,68,0.00,CLR,,0.00,7.7,WeatherDisplay:10.37,2013-05-23 01:21:00,
2013-05-22 20:26:00,71.0,61.1,29.85,South,189,0.0,0.0,71,0.00,CLR,,0.00,5.5,WeatherDisplay:10.37,2013-05-23 01:26:00,
2013-05-22 20:31:00,70.4,62.1,29.85,South,189,0.0,0.0,75,0.00,CLR,,0.00,0.0,WeatherDisplay:10.37,2013-05-23 01:31:00,
2013-05-22 20:36:00,69.8,60.4,29.85,South,189,0.0,0.0,72,0.00,CLR,,0.00,0.0,WeatherDisplay:10.37,2013-05-23 01:36:00,
2013-05-22 20:41:00,69.4,60.0,29.85,South,189,0.5,1.1,72,0.00,CLR,,0.00,0.0,WeatherDisplay:10.37,2013-05-23 01:41:00,
2013-05-22 20:46:00,68.9,60.6,29.86,South,189,0.2,1.1,75,0.00,CLR,,0.00,0.0,WeatherDisplay:10.37,2013-05-23 01:46:00,
2013-05-22 20:51:00,68.5,59.9,29.86,South,189,0.5,1.1,74,0.00,CLR,,0.00,0.0,WeatherDisplay:10.37,2013-05-23 01:51:00,
2013-05-22 20:56:00,68.0,59.4,29.86,South,189,0.5,1.1,74,0.00,CLR,,0.00,0.0,WeatherDisplay:10.37,2013-05-23 01:56:00,
2013-05-22 21:01:00,67.6,60.5,29.86,South,189,0.4,1.1,78,0.00,CLR,,0.00,0.0,WeatherDisplay:10.37,2013-05-23 02:01:00,
2013-05-22 21:06:00,67.4,60.3,29.86,South,189,0.0,0.0,78,0.00,CLR,,0.00,0.0,WeatherDisplay:10.37,2013-05-23 02:06:00,
2013-05-22 21:11:00,67.1,59.3,29.86,South,189,0.2,1.1,76,0.00,CLR,,0.00,0.0,WeatherDisplay:10.37,2013-05-23 02:11:00,
2013-05-22 21:16:00,66.7,59.6,29.86,South,189,0.2,1.1,78,0.00,CLR,,0.00,0.0,WeatherDisplay:10.37,2013-05-23 02:16:00,
2013-05-22 21:21:00,66.5,60.1,29.86,South,189,0.4,1.1,80,0.00,CLR,,0.00,0.0,WeatherDisplay:10.37,2013-05-23 02:21:00,
2013-05-22 21:26:00,66.0,60.0,29.87,South,189,0.8,2.3,81,0.00,CLR,,0.00,0.0,WeatherDisplay:10.37,2013-05-23 02:26:00,
2013-05-22 21:31:00,65.6,60.3,29.87,South,189,0.5,1.1,83,0.00,CLR,,0.00,0.0,WeatherDisplay:10.37,2013-05-23 02:31:00,
2013-05-22 21:36:00,65.4,60.1,29.87,South,189,0.5,3.5,83,0.00,CLR,,0.00,0.0,WeatherDisplay:10.37,2013-05-23 02:36:00,
2013-05-22 21:41:00,65.5,60.2,29.87,South,189,0.0,1.1,83,0.00,CLR,,0.00,0.0,WeatherDisplay:10.37,2013-05-23 02:41:00,
2013-05-22 21:46:00,65.3,60.7,29.87,South,189,0.1,1.1,85,0.00,CLR,,0.00,0.0,WeatherDisplay:10.37,2013-05-23 02:46:00,
2013-05-22 21:51:00,65.2,60.9,29.87,South,188,0.5,1.1,86,0.00,CLR,,0.00,0.0,WeatherDisplay:10.37,2013-05-23 02:51:00,
2013-05-22 21:56:00,65.2,60.6,29.87,South,188,0.2,2.3,85,0.00,CLR,,0.00,0.0,WeatherDisplay:10.37,2013-05-23 02:56:00,
2013-05-22 22:01:00,65.0,60.4,29.87,South,188,0.2,1.1,85,0.00,CLR,,0.00,0.0,WeatherDisplay:10.37,2013-05-23 03:01:00,
2013-05-22 22:06:00,65.4,59.4,29.88,South,188,0.4,1.1,81,0.00,CLR,,0.00,0.0,WeatherDisplay:10.37,2013-05-23 03:06:00,
2013-05-22 22:11:00,66.1,59.4,29.88,South,188,0.3,1.1,79,0.00,CLR,,0.00,0.0,WeatherDisplay:10.37,2013-05-23 03:11:00,
2013-05-22 22:16:00,66.3,59.2,29.88,South,187,1.2,3.5,78,0.00,CLR,,0.00,0.0,WeatherDisplay:10.37,2013-05-23 03:16:00,
2013-05-22 22:21:00,67.0,59.5,29.88,South,187,0.4,2.3,77,0.00,CLR,,0.00,0.0,WeatherDisplay:10.37,2013-05-23 03:21:00,
2013-05-22 22:26:00,67.3,59.5,29.88,South,187,1.0,2.3,76,0.00,CLR,,0.00,0.0,WeatherDisplay:10.37,2013-05-23 03:26:00,
2013-05-22 22:31:00,67.2,59.4,29.88,South,176,0.7,2.3,76,0.00,CLR,,0.00,0.0,WeatherDisplay:10.37,2013-05-23 03:31:00,
2013-05-22 22:36:00,66.9,59.5,29.88,South,176,0.5,2.3,77,0.00,CLR,,0.00,0.0,WeatherDisplay:10.37,2013-05-23 03:36:00,
2013-05-22 22:41:00,66.1,59.0,29.88,South,176,0.1,1.1,78,0.00,CLR,,0.00,0.0,WeatherDisplay:10.37,2013-05-23 03:41:00,
2013-05-22 22:46:00,65.7,59.0,29.89,South,176,0.4,1.1,79,0.00,CLR,,0.00,0.0,WeatherDisplay:10.37,2013-05-23 03:46:00,
2013-05-22 22:51:00,65.6,59.3,29.89,South,176,0.4,1.1,80,0.00,CLR,,0.00,0.0,WeatherDisplay:10.37,2013-05-23 03:51:00,
2013-05-22 22:56:00,66.3,59.2,29.89,South,174,0.2,1.1,78,0.00,CLR,,0.00,0.0,WeatherDisplay:10.37,2013-05-23 03:56:00,
2013-05-22 23:01:00,66.7,58.9,29.89,South,174,0.4,1.1,76,0.00,CLR,,0.00,0.0,WeatherDisplay:10.37,2013-05-23 04:01:00,
2013-05-22 23:02:00,66.7,59.3,29.89,South,174,0.6,2.3,77,0.00,CLR,,0.00,0.0,WeatherDisplay:10.37,2013-05-23 04:02:00,
2013-05-22 23:07:00,66.3,59.2,29.89,South,173,0.8,4.0,78,0.00,CLR,,0.00,0.0,WeatherDisplay:10.37,2013-05-23 04:07:00,
2013-05-22 23:12:00,66.3,59.2,29.89,South,173,0.3,2.3,78,0.00,CLR,,0.00,0.0,WeatherDisplay:10.37,2013-05-23 04:12:00,
2013-05-22 23:17:00,66.0,59.3,29.89,South,173,0.4,1.1,79,0.00,CLR,,0.00,0.0,WeatherDisplay:10.37,2013-05-23 04:17:00,
2013-05-22 23:22:00,65.7,59.0,29.89,South,173,0.8,3.5,79,0.00,CLR,,0.00,0.0,WeatherDisplay:10.37,2013-05-23 04:22:00,
2013-05-22 23:27:00,65.8,59.1,29.88,South,172,1.3,3.5,79,0.00,CLR,,0.00,0.0,WeatherDisplay:10.37,2013-05-23 04:27:00,
2013-05-22 23:32:00,65.9,59.2,29.88,South,172,1.1,3.5,79,0.00,CLR,,0.00,0.0,WeatherDisplay:10.37,2013-05-23 04:32:00,
2013-05-22 23:37:00,65.8,59.1,29.88,SSE,168,2.0,4.6,79,0.00,CLR,,0.00,0.0,WeatherDisplay:10.37,2013-05-23 04:37:00,
2013-05-22 23:42:00,65.7,59.0,29.88,SSE,166,1.3,3.5,79,0.00,CLR,,0.00,0.0,WeatherDisplay:10.37,2013-05-23 04:42:00,
2013-05-22 23:47:00,65.7,59.0,29.88,SSE,166,0.3,4.6,79,0.00,CLR,,0.00,0.0,WeatherDisplay:10.37,2013-05-23 04:47:00,
2013-05-22 23:52:00,65.7,59.0,29.88,SSE,166,1.0,2.3,79,0.00,CLR,,0.00,0.0,WeatherDisplay:10.37,2013-05-23 04:52:00,
2013-05-22 23:57:00,65.4,59.1,29.88,SSE,166,0.0,0.0,80,0.00,CLR,,0.00,0.0,WeatherDisplay:10.37,2013-05-23 04:57:00,